Location: The Saddle
(36.8333°N, 80.3417°W)
Time: 15:50:31
(UTC-05:00)

S-56A Canister/Altair - All Passes

Search period start: 30 January 2023 00:00
Search period end: 09 February 2023 00:00
Orbit: 639 x 2493 km, 38.9° (Epoch: 30 January)

Date Brightness Start Highest point End Pass type
(mag) Time Alt. Az. Time Alt. Az. Time Alt. Az.
30 Jan - 10:45:00 10° SSW 10:48:31 22° SE 10:52:34 10° E daylight
30 Jan - 12:46:36 10° WSW 12:51:36 82° SSE 12:58:41 10° ENE daylight
30 Jan - 14:49:53 10° W 14:56:01 77° N 15:05:27 10° E daylight
30 Jan - 16:53:17 10° WNW 17:00:57 72° SSW 17:12:43 10° ESE daylight
30 Jan - 18:57:39 10° W 19:06:07 34° SW 19:17:28 10° SSE visible
31 Jan - 10:13:04 10° S 10:16:01 17° SE 10:19:14 10° E daylight
31 Jan - 12:14:12 10° WSW 12:18:57 74° SSE 12:25:25 10° ENE daylight
31 Jan - 14:17:26 10° W 14:23:09 75° N 14:31:47 10° E daylight
31 Jan - 16:20:46 10° WNW 16:27:55 77° SSW 16:39:00 10° ESE daylight
31 Jan - 18:24:50 10° W 18:32:56 37° SSW 18:44:09 10° SSE visible
31 Jan - 20:34:58 10° WSW 20:37:59 11° SW 20:41:12 10° SSW visible
01 Feb - 09:41:20 10° S 09:43:31 13° SE 09:45:46 10° ESE daylight
01 Feb - 11:41:48 10° WSW 11:46:21 65° SSE 11:52:14 10° ENE daylight
01 Feb - 13:44:58 10° W 13:50:20 74° N 13:58:15 10° E daylight
01 Feb - 15:48:17 10° WNW 15:54:56 81° SSW 16:05:18 10° ESE daylight
01 Feb - 17:52:06 10° W 17:59:48 40° SSW 18:10:47 10° SSE visible
01 Feb - 20:00:24 10° WSW 20:04:49 13° SW 20:09:45 10° SSW visible
02 Feb - 09:10:25 10° SSE 09:10:59 10° SE 09:11:33 10° SE daylight
02 Feb - 11:09:24 10° SW 11:13:48 56° SSE 11:19:09 10° ENE daylight
02 Feb - 13:12:32 10° W 13:17:35 74° N 13:24:48 10° E daylight
02 Feb - 15:15:48 10° WNW 15:22:02 86° SSW 15:31:38 10° ESE daylight
02 Feb - 17:19:25 10° W 17:26:44 43° SSW 17:37:21 10° SE daylight
02 Feb - 19:26:34 10° WSW 19:31:40 15° SW 19:37:36 10° SSW visible
03 Feb - 10:37:00 10° SW 10:41:16 47° SSE 10:46:10 10° E daylight
03 Feb - 12:40:04 10° W 12:44:53 75° N 12:51:29 10° E daylight
03 Feb - 14:43:23 10° WNW 14:49:11 89° NNE 14:58:01 10° ESE daylight
03 Feb - 16:46:49 10° W 16:53:42 46° SSW 17:03:54 10° SE daylight
03 Feb - 18:53:07 10° WSW 18:58:34 16° SW 19:05:06 10° S visible
04 Feb - 10:04:34 10° SW 10:08:45 39° SSE 10:13:14 10° E daylight
04 Feb - 12:07:35 10° W 12:12:13 77° N 12:18:16 10° ENE daylight
04 Feb - 14:10:56 10° WNW 14:16:23 85° NNE 14:24:30 10° ESE daylight
04 Feb - 16:14:16 10° W 16:20:46 49° SSW 16:30:28 10° SE daylight
04 Feb - 18:19:54 10° WSW 18:25:30 18° SW 18:32:25 10° S visible
05 Feb - 09:32:09 10° SW 09:36:14 33° SSE 09:40:22 10° E daylight
05 Feb - 11:35:05 10° W 11:39:35 81° N 11:45:10 10° ENE daylight
05 Feb - 13:38:30 10° WNW 13:43:38 80° N 13:51:03 10° E daylight
05 Feb - 15:41:46 10° W 15:47:52 52° SSW 15:57:01 10° SE daylight
05 Feb - 17:46:52 10° WSW 17:52:28 20° SW 17:59:34 10° S daylight
06 Feb - 08:59:43 10° SSW 09:03:42 28° SSE 09:07:33 10° E daylight
06 Feb - 11:02:32 10° WSW 11:06:59 86° NNW 11:12:11 10° ENE daylight
06 Feb - 13:06:04 10° WNW 13:10:56 76° N 13:17:41 10° E daylight
06 Feb - 15:09:17 10° W 15:15:02 57° SSW 15:23:36 10° SE daylight
06 Feb - 17:13:57 10° W 17:19:29 21° SSW 17:26:39 10° S daylight
07 Feb - 08:27:17 10° SSW 08:31:10 24° SSE 08:34:45 10° E daylight
07 Feb - 10:29:57 10° WSW 10:34:25 87° SSE 10:39:19 10° ENE daylight
07 Feb - 12:33:35 10° W 12:38:15 73° N 12:44:26 10° E daylight
07 Feb - 14:36:50 10° WNW 14:42:15 61° SSW 14:50:14 10° SE daylight
07 Feb - 16:41:10 10° W 16:46:33 23° SSW 16:53:39 10° SSE daylight
08 Feb - 07:54:50 10° SSW 07:58:36 20° SSE 08:01:58 10° E daylight
08 Feb - 09:57:19 10° WSW 10:01:52 78° SSE 10:06:31 10° ENE daylight
08 Feb - 12:01:06 10° W 12:05:37 70° N 12:11:17 10° E daylight
08 Feb - 14:04:24 10° WNW 14:09:31 66° SSW 14:16:55 10° ESE daylight
08 Feb - 16:08:27 10° W 16:13:40 25° SSW 16:20:37 10° SSE daylight
